[[{"header":{"parameterUnit":"m.s-1","parameterCategory":1,"la1":30.2991,"la2":30.254,"lo1":-89.0895,"lo2":-89.0444,"dy":0.0017,"dx":0.0017,"nx":28,"ny":28,"refTime":"2025-01-18T09:00:00:Z","depth":0,"parameterNumber":2,"parameterNumberName":"U-component_of_WINDS"},"data":[0,0,0,0,0,0,0,0,0,0,0,0,0,0,0,0,0,0,0,0,0,0,0,0,0,0,0,0,0,0,0,0,0,0,0,0,0,0,0,0,0,0,0,0,0,0,0,0,0,0,0,0,0,0,0,0,0,0,4.4414,4.4414,0,4.4465,4.4466,4.4466,4.4431,4.443,4.4428,4.4427,4.4477,4.4479,4.4482,0,0,0,0,0,0,0,0,0,0,0,0,0,4.4285,4.4287,4.4414,4.4414,4.4415,4.4465,4.4466,4.4466,4.4432,4.443,4.4428,4.4426,4.4476,4.4479,4.4483,0,0,0,0,0,0,0,0,0,0,0,0,0,4.4339,4.4288,4.4414,4.4404,4.4403,4.4465,4.4466,4.4467,4.4432,4.443,4.4427,4.4425,4.4475,4.4479,4.4483,4.4556,0,0,4.4496,4.4498,0,0,0,0,0,0,0,0,4.4336,4.4344,4.4405,4.4405,4.4404,4.4439,4.4439,4.4497,4.4433,4.4421,4.4427,4.4424,4.4466,4.4471,4.4486,4.4559,4.4561,4.4496,4.4499,4.4501,4.4502,0,0,0,0,0,0,0,4.4332,4.4341,4.4434,4.4405,4.4405,4.4396,4.4402,4.4449,4.4456,4.4422,4.4419,4.4426,4.4465,4.4482,4.4486,4.4561,4.4496,4.45,4.4502,4.4504,4.4699,4.4702,0,0,0,0,0,0,4.4329,4.4338,4.4432,4.4435,4.4364,4.4401,4.4406,4.443,4.4456,4.4457,4.4428,4.4424,4.4476,4.4482,4.4488,4.4577,4.4501,4.4504,4.4507,4.4696,4.47,4.4702,0,0,0,0,0,0,4.4327,4.4338,4.443,4.4386,4.4397,4.4405,4.4433,4.4433,4.4449,4.446,4.4461,4.4443,4.4474,4.4482,4.454,4.4578,4.4506,4.451,4.4693,4.4697,4.4701,4.4753,0,0,0,0,0,0,4.4323,4.4337,4.4365,4.4387,4.44,4.4482,4.4435,4.4435,4.4456,4.4452,4.4475,4.4476,4.4473,4.4534,4.4544,4.4582,4.4513,4.469,4.4695,4.47,4.4748,4.4759,4.4768,0,0,0,0,0,4.4319,4.4377,4.4367,4.4378,4.4435,4.4484,4.4491,4.4487,4.446,4.4488,4.4496,4.4476,4.4572,4.454,4.4552,4.4591,4.4687,4.4694,4.4699,4.4744,4.4757,4.4767,0,0,0,0,0,0,4.4358,4.438,4.4369,4.4436,4.4459,4.4478,4.4513,4.45,4.453,4.4524,4.4517,4.4522,4.4583,4.4593,4.4557,4.4664,4.4626,4.4634,4.4656,4.4668,4.4677,4.4673,4.4517,0,0,0,0,0,4.4375,4.4413,4.443,4.4488,4.45,4.4505,4.4526,4.4521,4.4543,4.4552,4.4564,4.4587,4.4622,4.4645,4.4679,4.475,4.4755,4.4783,4.4793,4.4801,4.4808,4.4847,4.486,4.4722,4.4722,4.4722,0,0,4.4409,4.4426,4.445,4.4496,4.4513,4.4553,4.4513,4.4556,4.4586,4.4559,4.4615,4.4624,4.4649,4.4714,4.4744,4.4724,4.4847,4.4808,4.4814,4.4817,4.4855,4.4868,4.488,4.4726,4.4725,4.4725,0,0,4.4492,4.4509,4.4559,4.4578,4.4605,4.4608,4.462,4.4642,4.4648,4.4705,4.4686,4.4721,4.4781,4.48,4.4818,4.4911,4.4894,4.4922,4.4972,4.5011,4.5022,4.5031,4.5065,4.5077,4.4929,4.4929,4.493,0,4.4531,4.4591,4.4587,4.4633,4.4653,4.4633,4.4684,4.4702,4.4738,4.4753,4.4731,4.4809,4.4823,4.4894,4.4917,4.4931,4.4945,4.4919,4.502,4.503,4.5039,4.5071,4.5084,4.4933,4.4932,4.4932,4.4932,0,4.4638,4.468,4.4718,4.4755,4.478,4.4828,4.4831,4.4858,4.4851,4.4857,4.4915,4.4933,4.497,4.4986,4.4979,4.5056,4.5043,4.5021,4.4982,4.5056,4.5086,4.5098,4.4937,4.4936,4.4935,4.4934,0,0,4.4746,4.4782,4.4795,4.4813,4.4842,4.4874,4.4922,4.4959,4.4982,4.5008,4.5048,4.5102,4.5082,4.5102,4.5098,4.5132,4.5206,4.5106,4.5106,4.5124,4.5292,4.5309,4.5323,4.5195,4.5198,4.5199,4.529,0,4.4831,4.4915,4.4914,4.4992,4.5031,4.5013,4.5055,4.5077,4.5084,4.5118,4.5126,4.5164,4.5135,4.5148,4.5181,4.519,4.5239,4.5183,4.5232,4.5234,4.5226,4.5338,4.5355,4.544,4.5302,4.5304,4.5305,0,4.4941,4.4972,4.5055,4.508,4.5096,4.5134,4.5169,4.5202,4.5228,4.5231,4.5255,4.5245,4.5294,4.5254,4.5322,4.5284,4.5304,4.5312,4.5315,4.5319,4.5274,4.5345,4.5467,4.548,4.5324,4.5322,4.5321,0,4.5012,4.5075,4.5133,4.5148,4.5178,4.5206,4.5219,4.5243,4.5266,4.5297,4.5312,4.5348,4.5367,4.5395,4.5396,4.5367,4.5464,4.5424,4.5468,4.5468,4.5489,4.5487,4.5615,4.5502,4.5502,4.5502,4.5502,0,4.5107,4.5158,4.5165,4.52,4.5258,4.5256,4.5312,4.5324,4.5345,4.5383,4.5369,4.5404,4.5403,4.5439,4.544,4.5496,4.5505,4.5509,4.5508,4.551,4.551,4.5523,4.5517,4.5505,4.5505,4.5504,4.5503,0,4.5195,4.5202,4.5264,4.5289,4.5296,4.5337,4.5358,4.5392,4.5399,4.5447,4.5458,4.5469,4.5511,4.5514,4.5562,4.5563,4.5631,4.5624,4.5623,4.5622,4.5666,4.5661,4.5806,4.5825,4.57,4.5701,4.5702,0,4.5255,4.5294,4.5324,4.5349,4.5365,4.5404,4.5429,4.5429,4.5455,4.5488,4.5518,4.5559,4.5592,4.566,4.5672,4.5709,4.5703,4.5751,4.5708,4.5709,4.5704,4.5701,4.5706,4.5759,4.576,4.5762,4.5762,0,4.5361,4.5363,4.5399,4.5437,4.5467,4.5496,4.5524,4.5545,4.5549,4.5579,4.5622,4.5648,4.5698,4.5739,4.5776,4.579,4.5777,4.5776,4.5788,4.579,4.5788,4.579,4.5646,4.5773,4.5772,4.5771,4.577,4.577,4.5437,4.5472,4.5499,4.554,4.5561,4.5588,4.5621,4.5634,4.567,4.5712,4.571,4.5758,4.5784,4.5833,4.585,4.5887,4.5871,4.5888,4.5893,4.5897,4.5902,4.5783,4.5894,4.5894,4.5893,4.5893,4.5893,0,4.5543,4.556,4.5598,4.5638,4.567,4.5657,4.5688,4.5715,4.5758,4.5784,4.5817,4.5868,4.5908,4.5924,4.5964,4.5991,4.5986,4.6001,4.5999,4.6002,4.5914,4.59,4.6004,4.6004,4.6004,4.6004,4.6004,4.6004,4.5601,4.566,4.5665,4.5734,4.5751,4.5799,4.5818,4.5842,4.5863,4.5921,4.5955,4.5965,4.5987,4.6029,4.6065,4.6069,4.6084,4.6102,4.6103,4.602,4.6008,4.5998,4.5984,4.6105,4.6105,4.6188,4.6189,4.619]},{"header":{"parameterUnit":"m.s-1","parameterCategory":1,"la1":30.2991,"la2":30.254,"lo1":-89.0895,"lo2":-89.0444,"dy":0.0017,"dx":0.0017,"nx":28,"ny":28,"refTime":"2025-01-18T09:00:00:Z","depth":0,"parameterNumber":3,"parameterNumberName":"V-component_of_WINDS"},"data":[0,0,0,0,0,0,0,0,0,0,0,0,0,0,0,0,0,0,0,0,0,0,0,0,0,0,0,0,0,0,0,0,0,0,0,0,0,0,0,0,0,0,0,0,0,0,0,0,0,0,0,0,0,0,0,0,0,0,-7.7376,-7.7377,0,-7.7496,-7.7498,-7.7499,-7.7459,-7.7456,-7.7453,-7.7451,-7.7569,-7.7575,-7.758,0,0,0,0,0,0,0,0,0,0,0,0,0,-7.7106,-7.7112,-7.7375,-7.7377,-7.7379,-7.7496,-7.7498,-7.7499,-7.7459,-7.7456,-7.7453,-7.745,-7.7568,-7.7574,-7.7581,0,0,0,0,0,0,0,0,0,0,0,0,0,-7.7225,-7.7113,-7.7375,-7.7373,-7.7374,-7.7496,-7.7498,-7.75,-7.746,-7.7456,-7.7452,-7.7448,-7.7565,-7.7574,-7.7582,-7.7712,0,0,-7.7607,-7.7611,0,0,0,0,0,0,0,0,-7.7218,-7.7235,-7.7372,-7.7373,-7.7374,-7.7459,-7.7446,-7.7571,-7.7461,-7.7427,-7.7451,-7.7446,-7.7535,-7.7546,-7.7577,-7.7718,-7.7723,-7.7608,-7.7613,-7.7617,-7.7619,0,0,0,0,0,0,0,-7.721,-7.7229,-7.7423,-7.7374,-7.7375,-7.7364,-7.7377,-7.747,-7.7501,-7.743,-7.7427,-7.7442,-7.7535,-7.7569,-7.758,-7.7725,-7.7608,-7.7615,-7.7621,-7.7624,-7.798,-7.7984,0,0,0,0,0,0,-7.7201,-7.7223,-7.7419,-7.7427,-7.7285,-7.7372,-7.7386,-7.7435,-7.75,-7.7507,-7.7445,-7.744,-7.7557,-7.757,-7.7584,-7.7742,-7.7617,-7.7625,-7.763,-7.7976,-7.7981,-7.7986,0,0,0,0,0,0,-7.7196,-7.7219,-7.7414,-7.7324,-7.7348,-7.7381,-7.7437,-7.744,-7.7474,-7.7512,-7.7517,-7.7474,-7.7554,-7.7572,-7.7681,-7.7745,-7.7629,-7.7636,-7.797,-7.7977,-7.7983,-7.8059,0,0,0,0,0,0,-7.7188,-7.7218,-7.7268,-7.7326,-7.7353,-7.7511,-7.7441,-7.7445,-7.7489,-7.7483,-7.7541,-7.7547,-7.7552,-7.7669,-7.769,-7.7755,-7.7643,-7.7965,-7.7974,-7.7981,-7.8051,-7.8067,-7.8081,0,0,0,0,0,-7.7179,-7.7283,-7.7271,-7.7295,-7.7417,-7.7515,-7.7531,-7.7537,-7.7494,-7.7545,-7.757,-7.7545,-7.7735,-7.7681,-7.7703,-7.7772,-7.7961,-7.7971,-7.7981,-7.8044,-7.8064,-7.8081,0,0,0,0,0,0,-7.7229,-7.729,-7.7278,-7.7404,-7.7455,-7.7508,-7.7572,-7.7558,-7.762,-7.7612,-7.7615,-7.7628,-7.7742,-7.7767,-7.7706,-7.7903,-7.7841,-7.7856,-7.7882,-7.7901,-7.7916,-7.7907,-7.765,0,0,0,0,0,-7.7256,-7.7332,-7.738,-7.7486,-7.7513,-7.7539,-7.7581,-7.7582,-7.7634,-7.7655,-7.7688,-7.7739,-7.781,-7.7857,-7.7924,-7.8054,-7.8067,-7.8113,-7.8128,-7.8141,-7.8153,-7.8226,-7.8247,-7.8019,-7.8019,-7.8018,0,0,-7.731,-7.7353,-7.74,-7.7498,-7.7538,-7.7616,-7.7557,-7.7641,-7.7699,-7.7667,-7.7774,-7.78,-7.7857,-7.7978,-7.8032,-7.8003,-7.822,-7.8153,-7.8163,-7.8169,-7.8238,-7.826,-7.8279,-7.8025,-7.8024,-7.8023,0,0,-7.7449,-7.7489,-7.7583,-7.7625,-7.7687,-7.7703,-7.7726,-7.7783,-7.78,-7.7907,-7.7886,-7.7953,-7.8076,-7.8118,-7.8155,-7.8313,-7.8292,-7.8335,-7.8414,-7.8485,-7.8503,-7.8519,-7.8576,-7.8597,-7.8347,-7.8348,-7.8348,0,-7.7508,-7.7626,-7.7632,-7.772,-7.7764,-7.7742,-7.7837,-7.7877,-7.7957,-7.7987,-7.7953,-7.8109,-7.8145,-7.8276,-7.8315,-7.8346,-7.8372,-7.8328,-7.85,-7.8516,-7.8531,-7.8586,-7.8607,-7.8352,-7.8352,-7.8351,-7.8351,0,-7.7696,-7.7778,-7.7847,-7.7928,-7.7979,-7.807,-7.809,-7.8141,-7.8138,-7.8158,-7.8268,-7.8311,-7.8388,-7.8419,-7.8416,-7.8551,-7.8531,-7.8499,-7.8437,-7.8558,-7.8609,-7.863,-7.8359,-7.8358,-7.8356,-7.8355,0,0,-7.7869,-7.7955,-7.798,-7.8017,-7.8085,-7.8148,-7.8238,-7.8316,-7.836,-7.8416,-7.8492,-7.8597,-7.8569,-7.8611,-7.8612,-7.8674,-7.8798,-7.8634,-7.8636,-7.8664,-7.8951,-7.8976,-7.9,-7.8785,-7.8789,-7.8792,-7.8947,0,-7.8014,-7.8174,-7.8184,-7.8329,-7.8405,-7.8387,-7.8465,-7.8515,-7.8536,-7.8604,-7.8626,-7.8702,-7.8658,-7.8684,-7.8744,-7.877,-7.8856,-7.8759,-7.8855,-7.8858,-7.8842,-7.9026,-7.9052,-7.9196,-7.8967,-7.897,-7.8973,0,-7.8205,-7.827,-7.8423,-7.8483,-7.8515,-7.8586,-7.8659,-7.8723,-7.878,-7.8791,-7.884,-7.8833,-7.8925,-7.8861,-7.8987,-7.8922,-7.8961,-7.898,-7.8986,-7.8995,-7.8923,-7.9041,-7.9242,-7.9263,-7.9004,-7.9002,-7.8999,0,-7.8317,-7.8443,-7.8552,-7.8584,-7.8655,-7.8706,-7.8738,-7.879,-7.8837,-7.89,-7.8931,-7.9003,-7.9043,-7.9099,-7.9111,-7.9063,-7.9238,-7.9175,-7.925,-7.925,-7.9288,-7.9285,-7.9498,-7.9312,-7.9312,-7.9312,-7.9311,0,-7.8479,-7.8573,-7.8604,-7.867,-7.8776,-7.8786,-7.889,-7.8918,-7.8966,-7.9037,-7.9024,-7.9091,-7.9104,-7.9173,-7.9183,-7.9288,-7.9305,-7.9316,-7.9318,-7.9318,-7.9317,-7.9344,-7.9335,-7.9317,-7.9316,-7.9315,-7.9314,0,-7.8622,-7.8646,-7.8763,-7.8822,-7.884,-7.8915,-7.8965,-7.9029,-7.905,-7.9141,-7.9162,-7.9195,-7.9276,-7.9295,-7.939,-7.9397,-7.9521,-7.9513,-7.9503,-7.9503,-7.9578,-7.9571,-7.9816,-7.9849,-7.9641,-7.9643,-7.9645,0,-7.8723,-7.8796,-7.8865,-7.8913,-7.8948,-7.9025,-7.9074,-7.9087,-7.9137,-7.9209,-7.9264,-7.9345,-7.941,-7.9541,-7.9572,-7.9646,-7.9639,-7.972,-7.965,-7.9649,-7.9642,-7.9638,-7.9645,-7.9733,-7.9736,-7.9737,-7.9739,0,-7.8902,-7.8911,-7.8983,-7.906,-7.9119,-7.9179,-7.9236,-7.9276,-7.9297,-7.9355,-7.9439,-7.949,-7.959,-7.967,-7.9745,-7.9776,-7.9762,-7.9761,-7.9783,-7.9784,-7.9776,-7.9782,-7.954,-7.9755,-7.9754,-7.9752,-7.9752,-7.9751,-7.9028,-7.9093,-7.9152,-7.9233,-7.9278,-7.9333,-7.9397,-7.9427,-7.9499,-7.9582,-7.9585,-7.9678,-7.9733,-7.9832,-7.9868,-7.994,-7.9915,-7.9946,-7.9954,-7.9961,-7.9969,-7.9764,-7.9954,-7.9953,-7.9953,-7.9952,-7.9952,0,-7.9207,-7.9245,-7.9319,-7.9402,-7.9466,-7.9449,-7.9512,-7.9566,-7.9648,-7.9702,-7.9768,-7.9866,-7.9944,-7.9983,-8.006,-8.011,-8.0106,-8.013,-8.0127,-8.0135,-7.9986,-7.9961,-8.0133,-8.0133,-8.0133,-8.0133,-8.0133,-8.0133,-7.9308,-7.9418,-7.9434,-7.9566,-7.9602,-7.9695,-7.9733,-7.9783,-7.9827,-7.9938,-8.0004,-8.0029,-8.0077,-8.0158,-8.023,-8.0239,-8.0268,-8.0297,-8.0302,-8.0163,-8.0145,-8.0127,-8.0103,-8.0303,-8.0303,-8.0445,-8.0446,-8.0447]}]]